Location: Saint Louis
(38.6272°N, 90.1978°W)
Time: 20:07:10
(UTC-05:00)

ISS - Pass Details

Date: 13 March 2013
Orbit: 402 x 404 km, 51.6° (Epoch: 29 May)

Event Time Altitude Azimuth Distance (km) Brightness Sun altitude
Exits shadow 06:12:38 - 202° (SSW) 1,847 -0.3 -13.0°
Reaches altitude 10° 06:13:37 10° 196° (SSW) 1,478 -0.7 -12.8°
Maximum altitude 06:16:32 29° 134° (SE) 783 -1.5 -12.2°
Drops below altitude 10° 06:19:27 10° 72° (ENE) 1,471 0.9 -11.6°
Sets 06:21:41 0° 61° (ENE) 2,329 1.9 -11.2°
